Regional Weather Roundup
Issued by NWS

Home | Current Version | Previous Version | Graphics & Text | Print | Product List | Glossary On
Versions: 1 2 3 4 5 6 7 8 9 10 11 12 13 14 15 16 17 18 19 20 21 22 23 24 25 26 27 28 29 30 31 32 33 34 35 36 37 38 39 40
000
ASUS43 KDMX 260007
RWRIA

WEATHER ROUNDUP FOR IOWA
NATIONAL WEATHER SERVICE DES MOINES IA
600 PM CST THU DEC 25 2014

NOTE: "FAIR" INDICATES FEW OR NO CLOUDS BELOW 12,000 FEET WITH NO
SIGNIFICANT WEATHER AND/OR OBSTRUCTIONS TO VISIBILITY.

* - THESE STATIONS ARE NOT NWS STATIONS...THUS NOT UNDER NWS
QUALITY CONTROL.  THEY ALSO DO NOT REPORT WEATHER SUCH
AS PRECIPITATION OR FOG.

IAZ001>003-012>014-020>022-031>034-043>046-260100-
   NORTHWEST IOWA

CITY           SKY/WX    TMP DP  RH WIND       PRES   REMARKS
CARROLL *      CLEAR     34  32  93 SE6       29.69R WCI  29
CHEROKEE *     PTCLDY    32  31  98 N7        29.70S WCI  25
DENISON *      CLEAR     37  36  93 E7        29.66R WCI  32
LE MARS *      PTCLDY    34  32  93 NE7       29.71R WCI  28
ORANGE CITY *  CLEAR     36  30  80 NE8       29.70S WCI  29
SHELDON *      CLEAR     32  32 100 NE8       29.71S WCI  25
SIOUX CITY     CLEAR     34  29  82 N6        29.68R WCI  29
6HR MIN TEMP:  34; 6HR MAX TEMP:  44;

SPENCER        PTCLDY    34  30  85 NE10      29.73R WCI  26
6HR MIN TEMP:  33; 6HR MAX TEMP:  40;

STORM LAKE *   CLEAR     34  32  93 E9        29.70R WCI  26
$$

IAZ055>058-069>071-079>083-090>094-260100-
   SOUTHWEST IOWA

CITY           SKY/WX    TMP DP  RH WIND       PRES   REMARKS
ATLANTIC *     CLEAR     43  32  65 SE8       29.67R
AUDUBON *      CLEAR     36  28  75 CALM      29.69R
CLARINDA *     CLEAR     46  32  57 S7        29.69R
COUNCIL BLFS * CLEAR     41  34  75 SE7       29.64R
CRESTON *      CLEAR     41  32  70 S12       29.70R
HARLAN  *      CLEAR     41  36  81 S5        29.70R
LAMONI         MOCLDY    45  31  58 SE10      29.71S
6HR MIN TEMP:  44; 6HR MAX TEMP:  49;

RED OAK *      PTCLDY    45  32  61 SE6       29.67R
SHENANDOAH *   CLEAR     46  34  61 S15G22    29.67R
$$

IAZ047>049-059>061-072>074-084-260100-
   CENTRAL IOWA

CITY           SKY/WX    TMP DP  RH WIND       PRES   REMARKS
AMES           PTCLDY    40  31  70 SE6       29.74R
6HR MIN TEMP:  40; 6HR MAX TEMP:  48;

ANKENY *       CLEAR     43  32  65 SE7       29.74S
CHARITON *     CLOUDY    45  32  61 SE10G16   29.74S
DES MOINES     MOCLDY    45  30  55 SE10      29.74R
6HR MIN TEMP:  43; 6HR MAX TEMP:  50;

GRINNELL*      MOCLDY    39  32  75 E8        29.79R WCI  34
KNOXVILLE *    CLOUDY    45  28  53 SE8       29.75R
MARSHALLTOWN   PTCLDY    41  32  70 SE13      29.76R
6HR MIN TEMP:  37; 6HR MAX TEMP:  47;

PELLA *        CLOUDY    43  32  64 SE8       29.78S
PERRY *          N/A     37  34  87 E8        29.72R WCI  31
$$

IAZ004>006-015-016-023>025-035-036-260100-
   NORTH CENTRAL IOWA

CITY           SKY/WX    TMP DP  RH WIND       PRES   REMARKS
ALGONA *       CLEAR     34  34 100 E7        29.75R WCI  28
CLARION *      CLEAR     34  34 100 E10       29.74F WCI  26
ESTHERVILLE    MOCLDY    31  30  96 NE8       29.75R WCI  23
6HR MIN TEMP:  31; 6HR MAX TEMP:  37;

FORT DODGE *   CLEAR     34  28  80 E8        29.73S WCI  27
MASON CITY     PTCLDY    35  32  88 SE6       29.78R WCI  30
6HR MIN TEMP:  33; 6HR MAX TEMP:  37;

FOREST CITY *  CLEAR     34  30  86 E5        29.76R WCI  30
IOWA FALLS *     N/A     37  32  81 SE7       29.76S WCI  32
$$

IAZ007>011-017>019-026>030-037>042-050>054-066-260100-
   NORTHEAST IOWA

CITY           SKY/WX    TMP DP  RH WIND       PRES   REMARKS
CEDAR RAPIDS   PTCLDY    42  32  67 SE14      29.81R
6HR MIN TEMP:  41; 6HR MAX TEMP:  48;

CHARLES CITY * MOCLDY    37  34  87 SE7       29.80R WCI  32
CLINTON *      PTCLDY    39  30  70 S13       29.91S WCI  32
DECORAH *      CLEAR     37  32  81 SE6       29.79S WCI  33
DUBUQUE        PTCLDY    38  31  76 S15       29.84S WCI  29
6HR MIN TEMP:  37; 6HR MAX TEMP:  44;

MONTICELLO *   CLEAR     39  34  81 SE7       29.83S WCI  34
OELWEIN *      PTCLDY    37  32  81 S14       29.81R WCI  29
WATERLOO       PTCLDY    42  32  67 S14       29.79R
6HR MIN TEMP:  38; 6HR MAX TEMP:  46; 6HR PCP: TRACE;

$$

IAZ064-065-067-068-078-260100-
   EAST CENTRAL IOWA

CITY           SKY/WX    TMP DP  RH WIND       PRES   REMARKS
DAVENPORT      PTCLDY    41  30  65 S15       29.88F
6HR MIN TEMP:  41; 6HR MAX TEMP:  47;

IOWA CITY      PTCLDY    41  33  73 SE10      29.85R
6HR MIN TEMP:  41; 6HR MAX TEMP:  48;

MT. PLEASANT * PTCLDY    42  32  68 SE16      29.84F
MUSCATINE *    CLEAR     43  34  70 SE7G13    29.86S
QUAD CITIES    PTCLDY    41  31  67 SE12      29.88S
6HR MIN TEMP:  40; 6HR MAX TEMP:  50;

$$

IAZ062-063-075>077-085>089-095>099-260100-
   SOUTHEAST IOWA

CITY           SKY/WX    TMP DP  RH WIND       PRES   REMARKS
BURLINGTON     PTCLDY    44  32  62 SE13      29.86S
6HR MIN TEMP:  44; 6HR MAX TEMP:  48;

FAIRFIELD *    CLOUDY    43  32  65 SE13      29.81R
FORT MADISON * CLEAR     45  36  70 SE13      29.86S
KEOKUK *       CLEAR     45  32  61 SE12      29.84F
OSKALOOSA *      N/A     41  33  73 SE7       29.80R
CENTERVILLE *  CLEAR     43  32  65 SE8       29.78R
OTTUMWA        MOCLDY    44  31  60 SE14      29.79R
6HR MIN TEMP:  44; 6HR MAX TEMP:  50;

WASHINGTON *   CLEAR     43  36  75 SE12      29.83R
$$

ABBREVIATIONS USED IN REMARKS
   TC - TEMPERATURES IN CELSIUS
  WCI - WIND CHILL INDEX
   HX - HEAT INDEX
  VSB - VISIBILITY
$$




USA.gov is the U.S. government's official web portal to all federal, state and local government web resources and services.